Data No, UTC Date,UTC Time,Latitude,Longitude,Course(deg),Temp(degC),Sal(psu)
556,2018/2/26,9:15,42-36.97N,141-37.08E,210,3.224,32.5108
557,2018/2/26,9:16,42-36.74N,141-36.91E,206,3.569,32.5542
558,2018/2/26,9:17,42-36.48N,141-36.86E,177,3.472,32.7897
559,2018/2/26,9:18,42-36.22N,141-37.00E,153,3.728,32.8861
560,2018/2/26,9:19,42-35.97N,141-37.18E,150,3.828,32.9673
561,2018/2/26,9:20,42-35.71N,141-37.39E,150,3.932,33.0592
562,2018/2/26,9:21,42-35.44N,141-37.60E,150,3.986,33.0841
563,2018/2/26,9:22,42-35.16N,141-37.80E,151,4.046,33.118
564,2018/2/26,9:23,42-34.88N,141-38.01E,151,4.11,33.1248
565,2018/2/26,9:24,42-34.59N,141-38.22E,149,4.186,33.1417
566,2018/2/26,9:25,42-34.31N,141-38.46E,147,4.264,33.1634
567,2018/2/26,9:26,42-34.03N,141-38.70E,147,4.323,33.189
568,2018/2/26,9:27,42-33.75N,141-38.95E,147,4.365,33.2107
569,2018/2/26,9:28,42-33.45N,141-39.20E,147,4.407,33.224
570,2018/2/26,9:29,42-33.16N,141-39.45E,147,4.43,33.2405
571,2018/2/26,9:30,42-32.88N,141-39.70E,147,4.448,33.2463
572,2018/2/26,9:31,42-32.58N,141-39.95E,147,4.418,33.2496
573,2018/2/26,9:32,42-32.28N,141-40.21E,147,4.149,33.2501
574,2018/2/26,9:33,42-31.98N,141-40.47E,147,4.031,33.2236
575,2018/2/26,9:34,42-31.68N,141-40.73E,147,3.996,33.2014
576,2018/2/26,9:35,42-31.38N,141-40.98E,147,4.015,33.191
577,2018/2/26,9:36,42-31.08N,141-41.25E,147,4.043,33.188
578,2018/2/26,9:37,42-30.77N,141-41.51E,147,4.153,33.1971
579,2018/2/26,9:38,42-30.45N,141-41.78E,147,4.407,33.2086
580,2018/2/26,9:39,42-30.14N,141-42.05E,147,4.769,33.2563
581,2018/2/26,9:40,42-29.83N,141-42.31E,147,4.885,33.3064
582,2018/2/26,9:41,42-29.51N,141-42.59E,147,4.936,33.3262
583,2018/2/26,9:42,42-29.19N,141-42.86E,147,4.998,33.3337
584,2018/2/26,9:43,42-28.91N,141-43.18E,131,4.98,33.3413
585,2018/2/26,9:44,42-28.71N,141-43.66E,118,4.962,33.3398
586,2018/2/26,9:45,42-28.55N,141-44.05E,117,5.105,33.3388
587,2018/2/26,9:46,42-28.37N,141-44.49E,119,5.135,33.3504
588,2018/2/26,9:47,42-28.18N,141-44.94E,120,5.144,33.3562
589,2018/2/26,9:48,42-27.99N,141-45.37E,121,5.089,33.3541
590,2018/2/26,9:49,42-27.78N,141-45.81E,122,5.036,33.3474
591,2018/2/26,9:50,42-27.58N,141-46.25E,123,4.856,33.3385
592,2018/2/26,9:51,42-27.36N,141-46.69E,123,4.341,33.3187
593,2018/2/26,9:52,42-27.15N,141-47.13E,123,3.998,33.2758
594,2018/2/26,9:53,42-26.94N,141-47.55E,123,4.001,33.212
595,2018/2/26,9:54,42-26.72N,141-47.98E,123,3.866,33.1958
596,2018/2/26,9:55,42-26.49N,141-48.47E,123,3.747,33.1783
597,2018/2/26,9:56,42-26.27N,141-48.91E,123,3.853,33.1538
598,2018/2/26,9:57,42-26.06N,141-49.34E,123,3.855,33.1567
599,2018/2/26,9:58,42-25.88N,141-49.72E,123,3.79,33.1632
600,2018/2/26,9:59,42-25.64N,141-50.20E,123,3.756,33.1592
601,2018/2/26,10:00,42-25.43N,141-50.62E,123,3.436,33.1539
602,2018/2/26,10:01,42-25.21N,141-51.05E,123,3.228,33.1254
603,2018/2/26,10:02,42-25.03N,141-51.42E,123,3.316,33.0897
604,2018/2/26,10:03,42-24.82N,141-51.85E,123,3.389,33.0905
605,2018/2/26,10:04,42-24.61N,141-52.28E,123,3.576,33.1088
606,2018/2/26,10:05,42-24.40N,141-52.70E,123,3.724,33.1297
607,2018/2/26,10:06,42-24.17N,141-53.18E,123,4.065,33.151
608,2018/2/26,10:07,42-23.95N,141-53.61E,123,4.205,33.1855
609,2018/2/26,10:08,42-23.77N,141-53.98E,123,4.266,33.2064
610,2018/2/26,10:09,42-23.56N,141-54.41E,123,4.288,33.2156
611,2018/2/26,10:10,42-23.35N,141-54.83E,123,4.291,33.2209
612,2018/2/26,10:11,42-23.14N,141-55.25E,123,4.351,33.2212
613,2018/2/26,10:12,42-22.94N,141-55.68E,123,4.419,33.2276
614,2018/2/26,10:13,42-22.72N,141-56.11E,123,4.435,33.2365
615,2018/2/26,10:14,42-22.51N,141-56.54E,123,4.431,33.2398
616,2018/2/26,10:15,42-22.31N,141-56.96E,123,4.436,33.2402
617,2018/2/26,10:16,42-22.10N,141-57.38E,123,4.482,33.2401
618,2018/2/26,10:17,42-21.88N,141-57.82E,123,4.624,33.2407
619,2018/2/26,10:18,42-21.67N,141-58.25E,123,4.918,33.2495
620,2018/2/26,10:19,42-21.47N,141-58.67E,123,5.028,33.2818
621,2018/2/26,10:20,42-21.26N,141-59.10E,123,5.015,33.3044
622,2018/2/26,10:21,42-21.04N,141-59.53E,123,4.968,33.3079
623,2018/2/26,10:22,42-20.83N,141-59.96E,123,4.858,33.3032
624,2018/2/26,10:23,42-20.62N,142-00.40E,123,4.808,33.2911
625,2018/2/26,10:24,42-20.42N,142-00.83E,122,4.736,33.2845
626,2018/2/26,10:25,42-20.21N,142-01.26E,123,4.689,33.2776
627,2018/2/26,10:26,42-20.00N,142-01.69E,122,4.674,33.2703
628,2018/2/26,10:27,42-19.79N,142-02.12E,122,4.669,33.269
629,2018/2/26,10:28,42-19.58N,142-02.56E,122,4.717,33.2682
630,2018/2/26,10:29,42-19.37N,142-02.99E,122,4.726,33.2715
631,2018/2/26,10:30,42-19.17N,142-03.43E,122,4.801,33.275
632,2018/2/26,10:31,42-18.96N,142-03.87E,122,4.839,33.2804
633,2018/2/26,10:32,42-18.74N,142-04.31E,122,4.772,33.2862
634,2018/2/26,10:33,42-18.53N,142-04.75E,122,4.745,33.2729
635,2018/2/26,10:34,42-18.32N,142-05.19E,123,4.735,33.2646
636,2018/2/26,10:35,42-18.10N,142-05.62E,123,4.67,33.2644
637,2018/2/26,10:36,42-17.89N,142-06.05E,123,4.728,33.2602
638,2018/2/26,10:37,42-17.68N,142-06.48E,123,4.624,33.2693
639,2018/2/26,10:38,42-17.47N,142-06.92E,122,4.779,33.2594
640,2018/2/26,10:39,42-17.26N,142-07.35E,122,4.903,33.2798
641,2018/2/26,10:40,42-17.06N,142-07.78E,123,4.973,33.2869
642,2018/2/26,10:41,42-16.85N,142-08.21E,122,4.945,33.2963
643,2018/2/26,10:42,42-16.64N,142-08.64E,123,4.892,33.2948
644,2018/2/26,10:43,42-16.43N,142-09.08E,123,4.819,33.2889
645,2018/2/26,10:44,42-16.22N,142-09.51E,123,4.795,33.2817
646,2018/2/26,10:45,42-16.01N,142-09.93E,123,4.803,33.2717
647,2018/2/26,10:46,42-15.80N,142-10.36E,123,4.769,33.2712
648,2018/2/26,10:47,42-15.59N,142-10.79E,123,4.792,33.2675
649,2018/2/26,10:48,42-15.38N,142-11.22E,120,4.757,33.2701
650,2018/2/26,10:49,42-15.20N,142-11.68E,118,4.773,33.2734
651,2018/2/26,10:50,42-15.02N,142-12.14E,117,4.822,33.2733
652,2018/2/26,10:51,42-14.85N,142-12.59E,117,4.88,33.2736
653,2018/2/26,10:52,42-14.67N,142-13.05E,117,5.117,33.2737
654,2018/2/26,10:53,42-14.50N,142-13.50E,117,5.225,33.2973
655,2018/2/26,10:54,42-14.31N,142-13.97E,117,5.202,33.3196
656,2018/2/26,10:55,42-14.13N,142-14.42E,117,4.965,33.3266
657,2018/2/26,10:56,42-13.95N,142-14.87E,117,4.904,33.3028
658,2018/2/26,10:57,42-13.77N,142-15.33E,117,4.914,33.2829
659,2018/2/26,10:58,42-13.59N,142-15.79E,117,4.947,33.2783
660,2018/2/26,10:59,42-13.41N,142-16.25E,118,4.991,33.2816
661,2018/2/26,11:00,42-13.22N,142-16.70E,118,5.107,33.2855
662,2018/2/26,11:01,42-13.05N,142-17.15E,118,5.099,33.3011
663,2018/2/26,11:02,42-12.86N,142-17.61E,118,4.986,33.3065
664,2018/2/26,11:03,42-12.68N,142-18.06E,118,4.998,33.2969
665,2018/2/26,11:04,42-12.50N,142-18.53E,118,5.03,33.2882
666,2018/2/26,11:05,42-12.31N,142-18.98E,118,4.92,33.2966
667,2018/2/26,11:06,42-12.13N,142-19.44E,118,4.867,33.2848
668,2018/2/26,11:07,42-11.95N,142-19.89E,118,4.848,33.2728
669,2018/2/26,11:08,42-11.77N,142-20.34E,118,4.876,33.2682
670,2018/2/26,11:09,42-11.58N,142-20.81E,117,5.006,33.2692
671,2018/2/26,11:10,42-11.41N,142-21.26E,117,5.054,33.2819
672,2018/2/26,11:11,42-11.23N,142-21.71E,118,5.254,33.2943
673,2018/2/26,11:12,42-11.04N,142-22.17E,118,5.388,33.3136
674,2018/2/26,11:13,42-10.86N,142-22.64E,117,5.413,33.3402
675,2018/2/26,11:14,42-10.68N,142-23.09E,118,5.357,33.3476
676,2018/2/26,11:15,42-10.50N,142-23.54E,118,5.309,33.3458
677,2018/2/26,11:16,42-10.31N,142-24.00E,118,5.288,33.3355
678,2018/2/26,11:17,42-10.13N,142-24.46E,117,4.294,33.33
679,2018/2/26,11:18,42-09.95N,142-24.92E,117,3.298,33.2705
680,2018/2/26,11:19,42-09.78N,142-25.37E,118,3.166,33.046
681,2018/2/26,11:20,42-09.59N,142-25.81E,118,3.131,32.9752
682,2018/2/26,11:21,42-09.41N,142-26.25E,118,3.107,32.9591
683,2018/2/26,11:22,42-09.23N,142-26.70E,118,3.057,32.9529
684,2018/2/26,11:23,42-09.04N,142-27.15E,119,3.044,32.9458
685,2018/2/26,11:24,42-08.86N,142-27.60E,119,3.032,32.9388
686,2018/2/26,11:25,42-08.68N,142-28.03E,119,2.993,32.9385
687,2018/2/26,11:26,42-08.49N,142-28.48E,119,2.938,32.9351
688,2018/2/26,11:27,42-08.30N,142-28.92E,119,2.793,32.9337
689,2018/2/26,11:28,42-08.11N,142-29.36E,119,2.769,32.9189
690,2018/2/26,11:29,42-07.92N,142-29.81E,119,2.729,32.9034
691,2018/2/26,11:30,42-07.73N,142-30.24E,120,2.676,32.8956
692,2018/2/26,11:31,42-07.54N,142-30.68E,120,2.612,32.8896
693,2018/2/26,11:32,42-07.35N,142-31.13E,120,2.578,32.8814
694,2018/2/26,11:33,42-07.15N,142-31.57E,119,2.553,32.8774
695,2018/2/26,11:34,42-06.97N,142-32.01E,119,2.454,32.8721
696,2018/2/26,11:35,42-06.78N,142-32.45E,119,2.382,32.8599
697,2018/2/26,11:36,42-06.59N,142-32.89E,120,2.362,32.8401
698,2018/2/26,11:37,42-06.39N,142-33.34E,120,2.385,32.8281
699,2018/2/26,11:38,42-06.20N,142-33.79E,120,2.392,32.8262
700,2018/2/26,11:39,42-06.01N,142-34.22E,120,2.401,32.827
701,2018/2/26,11:40,42-05.82N,142-34.67E,120,2.435,32.8284
702,2018/2/26,11:41,42-05.63N,142-35.12E,119,2.458,32.8334
703,2018/2/26,11:42,42-05.44N,142-35.56E,120,2.396,32.8398
704,2018/2/26,11:43,42-05.25N,142-36.00E,119,2.285,32.8333
705,2018/2/26,11:44,42-05.06N,142-36.43E,120,2.235,32.8146
706,2018/2/26,11:45,42-04.88N,142-36.87E,119,2.162,32.8011
707,2018/2/26,11:46,42-04.69N,142-37.30E,119,2.142,32.7899
708,2018/2/26,11:47,42-04.50N,142-37.75E,119,2.233,32.7823
709,2018/2/26,11:48,42-04.31N,142-38.19E,119,2.354,32.7958
710,2018/2/26,11:49,42-04.13N,142-38.62E,119,2.515,32.8193
711,2018/2/26,11:50,42-03.94N,142-39.06E,119,2.385,32.8481
712,2018/2/26,11:51,42-03.76N,142-39.50E,119,2.166,32.8448
713,2018/2/26,11:52,42-03.56N,142-39.95E,119,2.07,32.7953
714,2018/2/26,11:53,42-03.38N,142-40.39E,119,2.066,32.7567
715,2018/2/26,11:54,42-03.19N,142-40.83E,119,2.085,32.745
716,2018/2/26,11:55,42-03.01N,142-41.26E,119,2.18,32.7542
717,2018/2/26,11:56,42-02.82N,142-41.70E,119,2.308,32.7726
718,2018/2/26,11:57,42-02.64N,142-42.14E,119,2.351,32.7988
719,2018/2/26,11:58,42-02.45N,142-42.59E,119,2.287,32.8109
720,2018/2/26,11:59,42-02.27N,142-43.02E,120,2.151,32.8025
721,2018/2/26,12:00,42-02.07N,142-43.45E,121,1.848,32.7815
722,2018/2/26,12:01,42-01.87N,142-43.88E,121,1.534,32.726
723,2018/2/26,12:02,42-01.67N,142-44.32E,122,1.288,32.6616
724,2018/2/26,12:03,42-01.47N,142-44.75E,121,1.161,32.5957
725,2018/2/26,12:04,42-01.27N,142-45.18E,122,1.063,32.5644
726,2018/2/26,12:05,42-01.06N,142-45.61E,122,1.017,32.5375
727,2018/2/26,12:06,42-00.86N,142-46.05E,122,0.987,32.5209
728,2018/2/26,12:07,42-00.65N,142-46.48E,122,0.959,32.512
729,2018/2/26,12:08,42-00.45N,142-46.91E,124,0.951,32.5032
730,2018/2/26,12:09,42-00.23N,142-47.32E,126,0.966,32.497
731,2018/2/26,12:10,42-00.00N,142-47.73E,126,0.986,32.4956
732,2018/2/26,12:11,41-59.76N,142-48.14E,127,1.01,32.4979
733,2018/2/26,12:12,41-59.53N,142-48.55E,127,1.038,32.5018
734,2018/2/26,12:13,41-59.30N,142-48.94E,127,1.04,32.5077
735,2018/2/26,12:14,41-59.06N,142-49.35E,127,1.055,32.5098
736,2018/2/26,12:15,41-58.83N,142-49.76E,127,1.076,32.5127
737,2018/2/26,12:16,41-58.59N,142-50.17E,127,1.098,32.5163
738,2018/2/26,12:17,41-58.36N,142-50.58E,127,1.105,32.52
739,2018/2/26,12:18,41-58.13N,142-50.99E,126,1.057,32.522
740,2018/2/26,12:19,41-57.90N,142-51.39E,127,1.072,32.5134
741,2018/2/26,12:20,41-57.67N,142-51.79E,127,1.068,32.5125
742,2018/2/26,12:21,41-57.44N,142-52.19E,127,1.08,32.5115
743,2018/2/26,12:22,41-57.20N,142-52.61E,127,1.089,32.5157
744,2018/2/26,12:23,41-56.97N,142-53.01E,127,1.089,32.5205
745,2018/2/26,12:24,41-56.74N,142-53.42E,127,1.094,32.5263
746,2018/2/26,12:25,41-56.50N,142-53.82E,129,1.094,32.5312
747,2018/2/26,12:26,41-56.25N,142-54.19E,131,1.081,32.5334
748,2018/2/26,12:27,41-55.99N,142-54.56E,132,1.074,32.5324
749,2018/2/26,12:28,41-55.73N,142-54.94E,133,1.051,32.5301
750,2018/2/26,12:29,41-55.47N,142-55.32E,133,1.033,32.5255
751,2018/2/26,12:30,41-55.21N,142-55.69E,133,1.035,32.5216
752,2018/2/26,12:31,41-54.95N,142-56.06E,132,1.029,32.5214
753,2018/2/26,12:32,41-54.70N,142-56.43E,130,1.045,32.5225
754,2018/2/26,12:33,41-54.47N,142-56.82E,128,1.051,32.523
755,2018/2/26,12:34,41-54.23N,142-57.22E,127,1.051,32.5225
756,2018/2/26,12:35,41-54.01N,142-57.64E,124,1.055,32.5219
757,2018/2/26,12:36,41-53.81N,142-58.06E,123,1.063,32.5219
758,2018/2/26,12:37,41-53.61N,142-58.48E,122,1.066,32.5218
759,2018/2/26,12:38,41-53.41N,142-58.90E,123,1.071,32.5222
760,2018/2/26,12:39,41-53.20N,142-59.32E,123,1.072,32.5231
761,2018/2/26,12:40,41-52.99N,142-59.75E,123,1.069,32.5233
762,2018/2/26,12:41,41-52.78N,143-00.17E,123,1.07,32.5237
763,2018/2/26,12:42,41-52.58N,143-00.60E,123,1.063,32.5241
764,2018/2/26,12:43,41-52.37N,143-01.01E,122,1.062,32.5252
765,2018/2/26,12:44,41-52.17N,143-01.43E,123,1.067,32.5253
766,2018/2/26,12:45,41-51.96N,143-01.86E,123,1.072,32.5263
767,2018/2/26,12:46,41-51.75N,143-02.28E,123,1.077,32.526
768,2018/2/26,12:47,41-51.55N,143-02.70E,123,1.094,32.5269
769,2018/2/26,12:48,41-51.34N,143-03.12E,123,1.069,32.5295
770,2018/2/26,12:49,41-51.14N,143-03.53E,123,1.048,32.5255
771,2018/2/26,12:50,41-50.93N,143-03.95E,123,1.053,32.52
772,2018/2/26,12:51,41-50.73N,143-04.38E,123,1.06,32.5159
773,2018/2/26,12:52,41-50.52N,143-04.80E,123,1.064,32.5154
774,2018/2/26,12:53,41-50.32N,143-05.21E,123,1.065,32.516
775,2018/2/26,12:54,41-50.11N,143-05.63E,123,1.062,32.514
776,2018/2/26,12:55,41-49.90N,143-06.05E,123,1.054,32.513
777,2018/2/26,12:56,41-49.69N,143-06.48E,123,1.032,32.5114
778,2018/2/26,12:57,41-49.49N,143-06.90E,123,1.039,32.5089
779,2018/2/26,12:58,41-49.28N,143-07.31E,123,1.028,32.5084
780,2018/2/26,12:59,41-49.07N,143-07.73E,123,0.997,32.5088
781,2018/2/26,13:00,41-48.86N,143-08.15E,123,0.969,32.5039
782,2018/2/26,13:01,41-48.66N,143-08.57E,123,0.954,32.4974
783,2018/2/26,13:02,41-48.46N,143-08.98E,123,0.939,32.4933
784,2018/2/26,13:03,41-48.25N,143-09.39E,123,0.93,32.4899
785,2018/2/26,13:04,41-48.04N,143-09.81E,123,0.924,32.488
786,2018/2/26,13:05,41-47.83N,143-10.23E,123,0.92,32.4857
787,2018/2/26,13:06,41-47.62N,143-10.65E,122,0.91,32.4845
788,2018/2/26,13:07,41-47.49N,143-11.10E,104,0.911,32.4839
789,2018/2/26,13:08,41-47.45N,143-11.57E,95,0.921,32.4846
790,2018/2/26,13:09,41-47.43N,143-12.05E,92,0.937,32.4861
791,2018/2/26,13:10,41-47.42N,143-12.54E,91,0.95,32.4896
792,2018/2/26,13:11,41-47.41N,143-13.03E,91,0.953,32.4925
793,2018/2/26,13:12,41-47.40N,143-13.51E,92,0.954,32.494
794,2018/2/26,13:13,41-47.38N,143-14.00E,92,0.962,32.4954
795,2018/2/26,13:14,41-47.36N,143-14.50E,93,0.94,32.4953
796,2018/2/26,13:15,41-47.34N,143-15.01E,93,0.914,32.493
797,2018/2/26,13:16,41-47.32N,143-15.49E,93,0.888,32.4879
798,2018/2/26,13:17,41-47.29N,143-15.98E,93,0.888,32.484
799,2018/2/26,13:18,41-47.27N,143-16.46E,93,0.898,32.4852
800,2018/2/26,13:19,41-47.24N,143-16.96E,93,0.927,32.4905
801,2018/2/26,13:20,41-47.22N,143-17.46E,93,0.959,32.4964
802,2018/2/26,13:21,41-47.20N,143-17.94E,92,0.98,32.5034
803,2018/2/26,13:22,41-47.19N,143-18.43E,89,0.985,32.5095
804,2018/2/26,13:23,41-47.20N,143-18.92E,88,1.002,32.515
805,2018/2/26,13:24,41-47.21N,143-19.42E,87,1.013,32.5179
806,2018/2/26,13:25,41-47.33N,143-19.85E,58,1.015,32.5206
807,2018/2/26,13:26,41-47.59N,143-20.13E,34,1.021,32.5234
808,2018/2/26,13:27,41-47.89N,143-20.38E,30,1.019,32.5262
809,2018/2/26,13:28,41-48.19N,143-20.62E,30,0.863,32.527
810,2018/2/26,13:29,41-48.50N,143-20.86E,31,0.775,32.5179
811,2018/2/26,13:30,41-48.81N,143-21.12E,32,0.718,32.5049
812,2018/2/26,13:31,41-49.11N,143-21.38E,33,0.696,32.4933
813,2018/2/26,13:32,41-49.42N,143-21.65E,33,0.684,32.4871
814,2018/2/26,13:33,41-49.71N,143-21.92E,33,0.689,32.4804
815,2018/2/26,13:34,41-50.01N,143-22.18E,33,0.693,32.476
816,2018/2/26,13:35,41-50.30N,143-22.45E,33,0.704,32.4733
817,2018/2/26,13:36,41-50.59N,143-22.70E,34,0.716,32.4732
818,2018/2/26,13:37,41-50.86N,143-22.95E,33,0.736,32.4722
819,2018/2/26,13:38,41-51.13N,143-23.19E,33,0.767,32.4743
820,2018/2/26,13:39,41-51.40N,143-23.44E,34,0.786,32.4765
821,2018/2/26,13:40,41-51.68N,143-23.69E,33,0.795,32.4786
822,2018/2/26,13:41,41-51.95N,143-23.93E,33,0.801,32.4787
823,2018/2/26,13:42,41-52.22N,143-24.18E,33,0.818,32.4796
824,2018/2/26,13:43,41-52.49N,143-24.42E,33,0.842,32.482
825,2018/2/26,13:44,41-52.76N,143-24.65E,33,0.82,32.4851
826,2018/2/26,13:45,41-53.02N,143-24.88E,33,0.747,32.4886
827,2018/2/26,13:46,41-53.28N,143-25.12E,33,0.601,32.4861
828,2018/2/26,13:47,41-53.55N,143-25.36E,33,0.529,32.4765
829,2018/2/26,13:48,41-53.82N,143-25.60E,33,0.484,32.4655
830,2018/2/26,13:49,41-54.09N,143-25.83E,33,0.468,32.4539
831,2018/2/26,13:50,41-54.36N,143-26.07E,33,0.472,32.4455
832,2018/2/26,13:51,41-54.63N,143-26.28E,29,0.471,32.4396
833,2018/2/26,13:52,41-54.91N,143-26.49E,27,0.486,32.437
834,2018/2/26,13:53,41-55.20N,143-26.68E,26,0.493,32.4354
835,2018/2/26,13:54,41-55.48N,143-26.87E,26,0.492,32.4374
836,2018/2/26,13:55,41-55.77N,143-27.06E,26,0.517,32.4332
837,2018/2/26,13:56,41-56.05N,143-27.26E,26,0.531,32.4348
838,2018/2/26,13:57,41-56.34N,143-27.45E,26,0.525,32.4362
839,2018/2/26,13:58,41-56.63N,143-27.65E,26,0.516,32.4356
840,2018/2/26,13:59,41-56.91N,143-27.83E,26,0.683,32.4345
841,2018/2/26,14:00,41-57.20N,143-28.02E,25,0.675,32.4505
842,2018/2/26,14:01,41-57.49N,143-28.21E,26,0.629,32.4574
843,2018/2/26,14:02,41-57.78N,143-28.40E,26,0.62,32.4534
844,2018/2/26,14:03,41-58.07N,143-28.61E,28,0.606,32.4484
845,2018/2/26,14:04,41-58.35N,143-28.82E,29,0.576,32.4443
846,2018/2/26,14:05,41-58.64N,143-29.03E,29,0.553,32.4409
847,2018/2/26,14:06,41-58.93N,143-29.25E,30,0.522,32.4383
848,2018/2/26,14:07,41-59.22N,143-29.47E,29,0.501,32.4351
849,2018/2/26,14:08,41-59.52N,143-29.70E,29,0.48,32.4338
850,2018/2/26,14:09,41-59.81N,143-29.92E,29,0.481,32.4343
851,2018/2/26,14:10,42-00.10N,143-30.15E,30,0.469,32.4345
852,2018/2/26,14:11,42-00.40N,143-30.37E,29,0.454,32.4361
853,2018/2/26,14:12,42-00.70N,143-30.59E,28,0.444,32.4391
854,2018/2/26,14:13,42-01.00N,143-30.82E,29,0.437,32.4416
855,2018/2/26,14:14,42-01.29N,143-31.04E,28,0.428,32.4429
856,2018/2/26,14:15,42-01.59N,143-31.26E,29,0.43,32.4457
857,2018/2/26,14:16,42-01.88N,143-31.48E,29,0.441,32.4506
858,2018/2/26,14:17,42-02.18N,143-31.71E,29,0.457,32.454
859,2018/2/26,14:18,42-02.48N,143-31.94E,29,0.443,32.4531
860,2018/2/26,14:19,42-02.77N,143-32.17E,30,0.447,32.447
861,2018/2/26,14:20,42-03.07N,143-32.40E,29,0.478,32.4416
862,2018/2/26,14:21,42-03.37N,143-32.63E,30,0.445,32.4408
863,2018/2/26,14:22,42-03.66N,143-32.86E,30,0.435,32.4376
864,2018/2/26,14:23,42-03.96N,143-33.09E,29,0.451,32.4329
865,2018/2/26,14:24,42-04.26N,143-33.32E,30,0.441,32.4306
866,2018/2/26,14:25,42-04.55N,143-33.55E,30,0.444,32.4289
867,2018/2/26,14:26,42-04.85N,143-33.78E,30,0.438,32.4284
868,2018/2/26,14:27,42-05.15N,143-34.02E,30,0.422,32.4269
869,2018/2/26,14:28,42-05.44N,143-34.25E,30,0.39,32.426
870,2018/2/26,14:29,42-05.74N,143-34.49E,30,0.373,32.4237
871,2018/2/26,14:30,42-06.04N,143-34.72E,30,0.379,32.4219
872,2018/2/26,14:31,42-06.33N,143-34.95E,30,0.381,32.42
873,2018/2/26,14:32,42-06.63N,143-35.19E,30,0.365,32.4186
874,2018/2/26,14:33,42-06.93N,143-35.43E,30,0.337,32.4165
875,2018/2/26,14:34,42-07.22N,143-35.66E,30,0.329,32.4131
876,2018/2/26,14:35,42-07.51N,143-35.89E,31,0.332,32.4094
877,2018/2/26,14:36,42-07.80N,143-36.12E,30,0.339,32.4055
878,2018/2/26,14:37,42-08.10N,143-36.36E,30,0.339,32.4002
879,2018/2/26,14:38,42-08.39N,143-36.59E,30,0.347,32.3974
880,2018/2/26,14:39,42-08.69N,143-36.83E,31,0.36,32.393
881,2018/2/26,14:40,42-08.98N,143-37.07E,31,0.403,32.3858
882,2018/2/26,14:41,42-09.27N,143-37.31E,31,0.413,32.3829
883,2018/2/26,14:42,42-09.57N,143-37.56E,31,0.36,32.3825
884,2018/2/26,14:43,42-09.87N,143-37.80E,31,0.302,32.3708
885,2018/2/26,14:44,42-10.16N,143-38.03E,31,0.264,32.3538
886,2018/2/26,14:45,42-10.45N,143-38.27E,31,0.163,32.3475
887,2018/2/26,14:46,42-10.74N,143-38.51E,31,0.132,32.3366
888,2018/2/26,14:47,42-11.04N,143-38.76E,31,0.128,32.3366
889,2018/2/26,14:48,42-11.33N,143-39.00E,32,0.12,32.3342
890,2018/2/26,14:49,42-11.62N,143-39.24E,32,0.143,32.3293
891,2018/2/26,14:50,42-11.91N,143-39.49E,32,0.144,32.3272
892,2018/2/26,14:51,42-12.19N,143-39.73E,32,0.151,32.3322
893,2018/2/26,14:52,42-12.48N,143-39.98E,33,0.313,32.3327
894,2018/2/26,14:53,42-12.77N,143-40.22E,32,0.367,32.3434
895,2018/2/26,14:54,42-13.05N,143-40.46E,32,0.359,32.3874
896,2018/2/26,14:55,42-13.33N,143-40.71E,32,0.339,32.4443
897,2018/2/26,14:56,42-13.62N,143-40.95E,32,0.328,32.4593
898,2018/2/26,14:57,42-13.90N,143-41.19E,32,0.332,32.4679
899,2018/2/26,14:58,42-14.18N,143-41.42E,31,0.38,32.4704
900,2018/2/26,14:59,42-14.46N,143-41.66E,32,0.539,32.4768
901,2018/2/26,15:00,42-14.75N,143-41.91E,31,0.554,32.4979
902,2018/2/26,15:01,42-15.03N,143-42.14E,32,0.553,32.522
903,2018/2/26,15:02,42-15.31N,143-42.37E,30,0.644,32.5428
904,2018/2/26,15:03,42-15.60N,143-42.59E,28,0.763,32.5682
905,2018/2/26,15:04,42-15.89N,143-42.80E,28,0.884,32.6038
906,2018/2/26,15:05,42-16.19N,143-43.01E,28,1.316,32.6439
907,2018/2/26,15:06,42-16.48N,143-43.22E,27,1.438,32.7275
908,2018/2/26,15:07,42-16.78N,143-43.44E,28,1.449,32.7776
909,2018/2/26,15:08,42-17.08N,143-43.65E,28,1.393,32.7911
910,2018/2/26,15:09,42-17.37N,143-43.86E,28,1.256,32.7947
911,2018/2/26,15:10,42-17.66N,143-44.07E,27,1.07,32.7878
912,2018/2/26,15:11,42-17.96N,143-44.28E,28,1.041,32.7538
913,2018/2/26,15:12,42-18.25N,143-44.50E,28,1.034,32.7323
914,2018/2/26,15:13,42-18.55N,143-44.71E,28,1.036,32.7205
915,2018/2/26,15:14,42-18.84N,143-44.92E,28,1.011,32.7116
916,2018/2/26,15:15,42-19.14N,143-45.14E,28,0.941,32.7054
917,2018/2/26,15:16,42-19.44N,143-45.36E,28,0.951,32.6899
918,2018/2/26,15:17,42-19.75N,143-45.58E,28,0.976,32.6859
919,2018/2/26,15:18,42-20.05N,143-45.80E,28,0.985,32.6876
920,2018/2/26,15:19,42-20.35N,143-46.01E,27,0.998,32.6901
921,2018/2/26,15:20,42-20.66N,143-46.23E,28,1.008,32.6939
922,2018/2/26,15:21,42-20.96N,143-46.45E,28,1.033,32.6959
923,2018/2/26,15:22,42-21.27N,143-46.68E,28,1.067,32.6992
924,2018/2/26,15:23,42-21.57N,143-46.90E,28,1.07,32.7044
925,2018/2/26,15:24,42-21.87N,143-47.11E,27,1.056,32.7081
926,2018/2/26,15:25,42-22.17N,143-47.33E,28,1.01,32.706
927,2018/2/26,15:26,42-22.47N,143-47.55E,28,0.985,32.699
928,2018/2/26,15:27,42-22.77N,143-47.77E,28,0.945,32.6929
929,2018/2/26,15:28,42-23.07N,143-47.99E,28,0.908,32.6832
930,2018/2/26,15:29,42-23.38N,143-48.21E,27,0.881,32.6651
931,2018/2/26,15:30,42-23.68N,143-48.43E,27,0.872,32.6562
932,2018/2/26,15:31,42-23.98N,143-48.64E,27,0.793,32.652
933,2018/2/26,15:32,42-24.29N,143-48.85E,27,0.676,32.6278
934,2018/2/26,15:33,42-24.60N,143-49.06E,27,0.596,32.6095
935,2018/2/26,15:34,42-24.91N,143-49.28E,27,0.514,32.5747
936,2018/2/26,15:35,42-25.21N,143-49.49E,26,0.487,32.5412
937,2018/2/26,15:36,42-25.52N,143-49.70E,27,0.445,32.533
938,2018/2/26,15:37,42-25.82N,143-49.92E,28,0.427,32.5194
939,2018/2/26,15:38,42-26.13N,143-50.15E,28,0.377,32.511
940,2018/2/26,15:39,42-26.43N,143-50.37E,27,0.339,32.5002
941,2018/2/26,15:40,42-26.73N,143-50.59E,28,0.3,32.4848
942,2018/2/26,15:41,42-27.04N,143-50.82E,29,0.256,32.4621
943,2018/2/26,15:42,42-27.34N,143-51.04E,28,0.246,32.4471
944,2018/2/26,15:43,42-27.64N,143-51.26E,28,0.254,32.4397
945,2018/2/26,15:44,42-27.95N,143-51.49E,28,0.246,32.4337
946,2018/2/26,15:45,42-28.26N,143-51.71E,28,0.248,32.4286
947,2018/2/26,15:46,42-28.57N,143-51.94E,28,0.256,32.4243
948,2018/2/26,15:47,42-28.88N,143-52.17E,28,0.248,32.4195
949,2018/2/26,15:48,42-29.19N,143-52.40E,28,0.226,32.4147
950,2018/2/26,15:49,42-29.50N,143-52.62E,28,0.216,32.4126
951,2018/2/26,15:50,42-29.81N,143-52.85E,29,0.211,32.4109
952,2018/2/26,15:51,42-30.12N,143-53.09E,28,0.22,32.4091
953,2018/2/26,15:52,42-30.43N,143-53.32E,28,0.225,32.408
954,2018/2/26,15:53,42-30.74N,143-53.57E,32,0.216,32.4077
955,2018/2/26,15:54,42-31.03N,143-53.83E,33,0.203,32.4083
956,2018/2/26,15:55,42-31.32N,143-54.10E,34,0.223,32.4084
957,2018/2/26,15:56,42-31.62N,143-54.37E,34,0.221,32.4085
958,2018/2/26,15:57,42-31.92N,143-54.64E,34,0.221,32.4087